Frederick, MD

4:03 PM EDT on September 28, 2016 (GMT -0400)
Frederick Municipal

Weather History for KFDK - July, 2013

Change the Weather History Date:

Friday, July 5, 2013

  Actual Average (KHGR) Record (KHGR)
Temperature  
Mean Temperature 78 °F 75 °F  
Max Temperature 89 °F 85 °F 100 °F (2010)
Min Temperature 68 °F 65 °F 55 °F (1996)
Degree Days  
Heating Degree Days 0 0  
Month to date heating degree days 0  
Since 1 June heating degree days 18  
Since 1 July heating degree days 0  
Cooling Degree Days 14 10  
Month to date cooling degree days 50  
Year to date cooling degree days 335  
Since 1 June cooling degree days 259  
Growing Degree Days 28 (Base 50)    
Moisture  
Dew Point 71 °F    
Average Humidity 84    
Maximum Humidity 100    
Minimum Humidity 58    
Precipitation  
Precipitation 0.00 in 0.09 in 0.33 in (2006)
Month to date precipitation 0.46  
Year to date precipitation 20.54  
Sea Level Pressure  
Sea Level Pressure 30.22 in    
Wind  
Wind Speed 4 mph (South)    
Max Wind Speed 14 mph    
Max Gust Speed 18 mph    
Visibility 9 miles    
Events Thunderstorm    
T = Trace of Precipitation, MM = Missing Value Source: NWS Daily Summary

Daily Weather History Graph

Daily Weather History Graph

Search for Another Location

Airport or City:

Trip Planner

Search our weather history database for the weather conditions in past years. The results will help you decide how hot, cold, wet, or windy it might be!

Date:

Astronomy

Jul. 05, 2013 Rise Set
Actual Time 5:48 AM EDT 8:39 PM EDT
Civil Twilight 5:16 AM EDT 9:11 PM EDT
Nautical Twilight 4:35 AM EDT 9:51 PM EDT
Astronomical Twilight 3:49 AM EDT 10:38 PM EDT
Moon 3:46 AM EDT (7/5) 6:33 PM EDT (7/5)
Length of Visible Light 15h 55m
Length of Day
14h 51m
Waning Crescent, 6% of the Moon is Illuminated
Jul 5
Waning Crescent
Jul 8
New
Jul 15
First Quarter
Jul 22
Full
Jul 29
Last Quarter

Hourly Weather History & Observations

Time (EDT) Temp. Heat Index Dew Point Humidity Pressure Visibility Wind Dir Wind Speed Gust Speed Precip Events Conditions
12:15 AM 73.4 °F - 71.6 °F 94% 30.23 in 10.0 mi SSW 4.6 mph - N/A   Clear
12:35 AM 75.2 °F - 71.6 °F 89% 30.24 in 10.0 mi South 4.6 mph - N/A   Clear
12:55 AM 75.2 °F - 71.6 °F 89% 30.24 in 10.0 mi South 4.6 mph - N/A   Clear
1:15 AM 75.2 °F - 71.6 °F 89% 30.24 in 10.0 mi SSW 3.5 mph - N/A   Clear
1:35 AM 73.4 °F - 71.6 °F 94% 30.24 in 10.0 mi Calm Calm - N/A   Clear
1:50 AM 73.4 °F - 71.6 °F 94% 30.24 in 10.0 mi Calm Calm - N/A   Clear
2:15 AM 73.4 °F - 69.8 °F 88% 30.24 in 10.0 mi South 4.6 mph - N/A   Clear
2:35 AM 73.4 °F - 69.8 °F 88% 30.24 in 10.0 mi Calm Calm - N/A   Clear
2:55 AM 71.6 °F - 69.8 °F 94% 30.24 in 10.0 mi SSE 3.5 mph - N/A   Clear
3:15 AM 71.6 °F - 69.8 °F 94% 30.23 in 10.0 mi Calm Calm - N/A   Clear
3:35 AM 69.8 °F - 69.8 °F 100% 30.23 in 10.0 mi South 3.5 mph - N/A   Clear
3:55 AM 71.6 °F - 69.8 °F 94% 30.23 in 10.0 mi South 3.5 mph - N/A   Clear
4:15 AM 71.6 °F - 71.6 °F 100% 30.23 in 10.0 mi South 3.5 mph - N/A   Clear
4:35 AM 69.8 °F - 69.8 °F 100% 30.23 in 10.0 mi Calm Calm - N/A   Clear
4:55 AM 71.6 °F - 69.8 °F 94% 30.23 in 10.0 mi Calm Calm - N/A   Clear
5:15 AM 69.8 °F - 69.8 °F 100% 30.23 in 10.0 mi SW 3.5 mph - N/A   Clear
5:35 AM 69.8 °F - 69.8 °F 100% 30.23 in 7.0 mi Calm Calm - N/A   Clear
5:55 AM 69.8 °F - 69.8 °F 100% 30.23 in 7.0 mi Calm Calm - N/A   Clear
6:15 AM 68.0 °F - 68.0 °F 100% 30.24 in 5.0 mi Calm Calm - N/A   Clear
6:35 AM 69.8 °F - 69.8 °F 100% 30.24 in 5.0 mi SSE 3.5 mph - N/A   Clear
6:45 AM 71.6 °F - 71.6 °F 100% 30.24 in 5.0 mi South 3.5 mph - N/A   Clear
7:50 AM 75.2 °F - 73.4 °F 94% 30.25 in 10.0 mi SSW 5.8 mph - N/A   Mostly Cloudy
9:45 AM 78.8 °F - 73.4 °F 83% 30.26 in 7.0 mi SSW 8.1 mph - N/A   Overcast
10:25 AM 80.6 °F 85.4 °F 73.4 °F 79% 30.25 in 10.0 mi South 5.8 mph - N/A   Scattered Clouds
10:55 AM 82.4 °F 88.2 °F 73.4 °F 74% 30.25 in 10.0 mi SSW 8.1 mph - N/A   Scattered Clouds
11:50 AM 84.2 °F 90.9 °F 73.4 °F 70% 30.24 in 10.0 mi SW 9.2 mph - N/A   Scattered Clouds
12:50 PM 87.8 °F 95.6 °F 73.4 °F 62% 30.23 in 10.0 mi SSW 9.2 mph - N/A   Scattered Clouds
1:45 PM 87.8 °F 95.6 °F 73.4 °F 62% 30.22 in 10.0 mi SW 11.5 mph 17.3 mph N/A   Scattered Clouds
2:45 PM 89.6 °F 98.2 °F 73.4 °F 59% 30.20 in 10.0 mi South 10.4 mph 18.4 mph N/A   Mostly Cloudy
3:50 PM 89.6 °F 98.2 °F 73.4 °F 59% 30.19 in 10.0 mi South 12.7 mph 17.3 mph N/A   Mostly Cloudy
4:59 PM 87.8 °F 95.6 °F 73.4 °F 62% 30.16 in 10.0 mi South 10.4 mph - N/A   Mostly Cloudy
5:50 PM 87.8 °F 93.8 °F 71.6 °F 58% 30.16 in 10.0 mi SSW 12.7 mph 16.1 mph N/A   Clear
6:45 PM 87.8 °F 93.8 °F 71.6 °F 58% 30.15 in 10.0 mi SW 13.8 mph 17.3 mph N/A   Scattered Clouds
7:50 PM 84.2 °F 90.9 °F 73.4 °F 70% 30.15 in 10.0 mi South 5.8 mph - N/A   Clear
8:55 PM 80.6 °F 84.6 °F 71.6 °F 74% 30.17 in 10.0 mi South 4.6 mph - N/A   Clear
9:15 PM 78.8 °F - 71.6 °F 78% 30.18 in 10.0 mi South 4.6 mph - N/A   Clear
9:35 PM 80.6 °F 84.6 °F 71.6 °F 74% 30.18 in 10.0 mi South 5.8 mph - N/A Thunderstorm Clear
9:55 PM 78.8 °F - 71.6 °F 78% 30.18 in - South 4.6 mph - N/A   Clear
10:15 PM 78.8 °F - 71.6 °F 78% 30.19 in 10.0 mi South 4.6 mph - N/A   Clear
10:35 PM 78.8 °F - 71.6 °F 78% 30.19 in 10.0 mi South 4.6 mph - N/A   Clear
10:55 PM 77.0 °F - 71.6 °F 83% 30.19 in 10.0 mi South 3.5 mph - N/A   Clear
11:15 PM 77.0 °F - 71.6 °F 83% 30.19 in 10.0 mi South 3.5 mph - N/A   Clear
11:35 PM 75.2 °F - 71.6 °F 89% 30.19 in 10.0 mi South 4.6 mph - N/A   Clear
11:55 PM 77.0 °F - 71.6 °F 83% 30.19 in 10.0 mi South 5.8 mph - N/A   Clear